Weather History for Logan, UT

Change the Weather History Date:

Sunday, November 18, 2012

  Actual Average Record
Temperature  
Mean Temperature 44 °F -  
Max Temperature 50 °F 45 °F 64 °F (2007)
Min Temperature 37 °F 24 °F -1 °F (1958)
Degree Days  
Heating Degree Days 20    
Moisture  
Dew Point 40 °F    
Average Humidity 86    
Maximum Humidity 100    
Minimum Humidity 66    
Precipitation  
Precipitation 0.54 in - - ()
Sea Level Pressure  
Sea Level Pressure 30.01 in    
Wind  
Wind Speed 6 mph (West)    
Max Wind Speed 25 mph    
Max Gust Speed 37 mph    
Visibility 8 miles    
Events Rain , Thunderstorm    
Averages and records for this station are not official NWS values.
T = Trace of Precipitation, MM = Missing Value Source: NWS Daily Summary

Daily Weather History Graph

Daily Weather History Graph

Search for Another Location

Airport:

Trip Planner

Search our weather history database for the weather conditions in past years. The results will help you decide how hot, cold, wet, or windy it might be!

Date:

Astronomy

Nov. 18, 2012 Rise Set
Actual Time 7:21 AM MST 5:03 PM MST
Civil Twilight 6:50 AM MST 5:34 PM MST
Nautical Twilight 6:17 AM MST 6:07 PM MST
Astronomical Twilight 5:43 AM MST 6:41 PM MST
Moon 11:49 AM MST (11/18) 10:29 PM MST (11/18)
Length of Visible Light 10h 43m
Length of Day
9h 42m
Waxing Crescent, 31% of the Moon is Illuminated
Nov 18
Waxing Crescent
Nov 20
First Quarter
Nov 28
Full
Dec 6
Last Quarter
Dec 13
New

Hourly Weather History & Observations

Time (MST) Temp. Windchill Dew Point Humidity Pressure Visibility Wind Dir Wind Speed Gust Speed Precip Events Conditions
12:51 AM 46.0 °F 43.9 °F 42.1 °F 86% 29.89 in 10.0 mi West 4.6 mph - 0.02 in Rain Light Rain
1:51 AM 50.0 °F - 39.9 °F 68% 29.87 in 10.0 mi Calm Calm - 0.00 in   Overcast
2:51 AM 50.0 °F - 39.0 °F 66% 29.87 in 10.0 mi ESE 8.1 mph - N/A   Overcast
3:51 AM 45.0 °F 41.8 °F 41.0 °F 86% 29.87 in 10.0 mi Variable 5.8 mph - 0.01 in   Overcast
4:51 AM 48.9 °F - 39.9 °F 71% 29.87 in 10.0 mi Calm Calm - 0.00 in   Overcast
5:51 AM 46.9 °F - 39.9 °F 77% 29.89 in 10.0 mi Calm Calm - 0.01 in   Overcast
6:51 AM 48.9 °F - 39.0 °F 69% 29.90 in 10.0 mi Calm Calm - 0.00 in   Overcast
7:51 AM 46.9 °F - 39.0 °F 74% 29.92 in 10.0 mi NNW 5.8 mph - 0.00 in   Overcast
8:51 AM 48.9 °F - 41.0 °F 74% 29.92 in 10.0 mi SSW 8.1 mph - 0.02 in Rain Light Rain
9:34 AM 48.2 °F - 41.0 °F 76% 29.98 in 10.0 mi West 11.5 mph - 0.00 in Rain Light Rain
10:12 AM 44.6 °F 38.4 °F 41.0 °F 87% 30.01 in 2.5 mi WNW 12.7 mph 21.9 mph 0.09 in Rain Heavy Rain
10:18 AM 44.6 °F 38.8 °F 41.0 °F 87% 30.02 in 8.0 mi WNW 11.5 mph - 0.09 in Rain Light Rain
10:51 AM 45.0 °F 41.2 °F 39.9 °F 82% 29.99 in 10.0 mi East 6.9 mph - 0.17 in   Overcast
12:46 PM 46.4 °F 42.4 °F 41.0 °F 81% 30.03 in 6.0 mi WNW 8.1 mph - 0.03 in Rain Light Rain
12:51 PM 45.0 °F 39.3 °F 41.0 °F 86% 30.00 in 3.0 mi NW 11.5 mph - 0.05 in Rain Rain
12:56 PM 44.6 °F 39.7 °F 41.0 °F 87% 30.03 in 2.5 mi NW 9.2 mph - 0.01 in Rain Rain
1:00 PM 44.6 °F 39.7 °F 41.0 °F 87% 30.02 in 4.0 mi NNW 9.2 mph - 0.02 in Rain Rain
1:51 PM 46.0 °F 43.1 °F 44.1 °F 93% 29.98 in 10.0 mi NNE 5.8 mph - 0.03 in Rain Light Rain
2:51 PM 46.9 °F - 46.0 °F 97% 29.99 in 10.0 mi Calm Calm - 0.01 in Rain Light Rain
3:51 PM 46.0 °F 43.1 °F 46.0 °F 100% 30.01 in 10.0 mi WSW 5.8 mph - 0.00 in   Overcast
4:51 PM 44.1 °F 42.5 °F 42.1 °F 93% 30.01 in 5.0 mi SSW 3.5 mph - 0.01 in Rain Light Rain
5:51 PM 43.0 °F 41.3 °F 41.0 °F 93% 30.04 in 10.0 mi SW 3.5 mph - 0.01 in   Overcast
6:51 PM 39.9 °F 36.7 °F 39.0 °F 97% 30.03 in 9.0 mi NNW 4.6 mph - N/A Thunderstorm Scattered Clouds
7:12 PM 39.2 °F 28.3 °F 37.4 °F 93% 30.13 in 8.0 mi West 25.3 mph 36.8 mph 0.01 in Rain , Thunderstorm Light Rain
7:17 PM 39.2 °F 31.2 °F 37.4 °F 93% 30.13 in 4.0 mi WSW 13.8 mph 35.7 mph 0.05 in Rain Heavy Rain
7:22 PM 39.2 °F 31.6 °F 37.4 °F 93% 30.13 in 3.0 mi West 12.7 mph 21.9 mph 0.08 in Rain , Thunderstorm Heavy Rain
7:41 PM 39.2 °F 32.0 °F 37.4 °F 93% 30.14 in 4.0 mi East 11.5 mph - 0.16 in Rain Rain
7:51 PM 39.9 °F 30.8 °F 37.0 °F 89% 30.11 in 7.0 mi East 18.4 mph 23.0 mph 0.19 in Rain Rain
8:06 PM 39.2 °F 31.2 °F 35.6 °F 87% 30.13 in 10.0 mi ESE 13.8 mph - 0.01 in Rain Light Rain
8:51 PM 39.9 °F 35.8 °F 37.0 °F 89% 30.10 in 10.0 mi South 5.8 mph - 0.01 in   Overcast
9:51 PM 39.0 °F 35.7 °F 37.0 °F 93% 30.12 in 10.0 mi WSW 4.6 mph - 0.00 in   Overcast
10:51 PM 39.0 °F 33.4 °F 37.9 °F 96% 30.13 in 10.0 mi East 8.1 mph - 0.00 in Rain Light Rain
11:51 PM 37.9 °F 35.5 °F 37.0 °F 97% 30.13 in 10.0 mi NW 3.5 mph - 0.00 in   Mostly Cloudy